Location: Mascot Post Office (historical)
(40.2645°N, 99.5462°W)
Time: 17:24:47
(UTC+00:00)

SL-08 R/B - Pass Details

Date: 14 July 2020
Orbit: 675 x 738 km, 98.4° (Epoch: 04 August)

Event Time Altitude Azimuth Distance (km) Brightness Sun altitude
Exits shadow 09:37:11 15° 173° (S) 1,860 5.1 -16.2°
Maximum altitude 09:41:09 74° 257° (WSW) 738 3.2 -15.7°
Drops below altitude 10° 09:46:00 10° 343° (NNW) 2,208 6.3 -15.1°
Sets 09:48:18 0° 345° (NNW) 3,142 7.1 -14.8°
